DW7898 Weather Reports


time (UTC)temp
F
wind
direction
speed
knots
gust
knots
rain 1hr
in
rain 24hr
in
rain mn
in
humidity
%
barometer
mb
20260504004355 60 27 0.0 0.0 0.00 0.03 0.00 92 1015.1
20260504003337 60 27 0.0 0.0 0.00 0.03 0.00 92 1015.2
20260504002337 59 27 0.0 1.7 0.00 0.03 0.00 92 1015.3
20260504001337 59 27 0.9 3.5 0.00 0.03 0.00 91 1015.2
20260504000336 60 31 0.0 0.0 0.00 0.03 0.00 92 1015.2
20260503235356 60 34 0.0 0.0 0.00 0.03 0.00 92 1015.1
20260503234338 60 34 0.0 0.0 0.00 0.03 0.00 92 1015.4
20260503233341 60 34 0.0 0.0 0.00 0.03 0.00 91 1015.5
20260503232354 59 34 0.0 1.7 0.00 0.03 0.00 91 1015.4
20260503231353 59 34 0.9 2.6 0.00 0.03 0.00 91 1015.4
20260503230339 60 34 0.9 1.7 0.00 0.03 0.00 91 1015.5
20260503225358 59 34 1.7 3.5 0.00 0.03 0.00 90 1015.5
20260503224358 60 32 2.6 3.5 0.00 0.03 0.00 90 1015.5
20260503223358 59 26 1.7 3.5 0.00 0.03 0.00 89 1015.6
20260503222354 59 33 1.7 4.3 0.00 0.03 0.00 89 1015.7
20260503221339 59 11 2.6 6.1 0.00 0.03 0.00 89 1015.8
20260503220343 59 26 2.6 6.1 0.00 0.03 0.00 90 1015.6
20260503215343 60 33 3.5 6.1 0.00 0.03 0.03 90 1015.7
20260503214350 60 24 2.6 4.3 0.00 0.03 0.03 89 1015.9
20260503213356 60 38 2.6 5.2 0.00 0.03 0.03 89 1015.8
20260503212351 60 39 1.7 4.3 0.02 0.03 0.03 87 1015.9
20260503211351 60 34 0.9 3.5 0.02 0.03 0.03 87 1015.9
20260503210355 60 35 1.7 6.1 0.02 0.03 0.03 86 1016.0
20260503205357 60 51 1.7 4.3 0.02 0.03 0.02 85 1015.9
20260503204355 60 23 2.6 4.3 0.02 0.03 0.02 83 1016.0
20260503203359 60 101 0.0 3.5 0.02 0.03 0.02 82 1016.2
20260503202356 61 99 2.6 5.2 0.01 0.02 0.01 81 1016.2
20260503201357 62 48 0.0 1.7 0.00 0.01 0.01 80 1016.0
20260503200341 62 48 0.9 2.6 0.00 0.01 0.01 80 1015.8
20260503195358 62 48 0.0 1.7 0.00 0.01 0.01 79 1016.0
20260503194341 62 48 0.9 2.6 0.00 0.01 0.01 79 1015.8
20260503193340 62 47 0.0 3.5 0.00 0.01 0.01 79 1015.6
20260503192357 62 46 1.7 3.5 0.01 0.01 0.01 78 1015.5
20260503191358 62 45 0.9 4.3 0.01 0.01 0.01 77 1015.3
20260503190340 62 49 3.5 4.3 0.01 0.01 0.01 76 1015.2
20260503185342 62 85 1.7 4.3 0.01 0.01 0.01 76 1015.5
20260503184347 62 82 0.9 3.5 0.01 0.01 0.01 76 1015.6
20260503183352 62 81 0.9 3.5 0.01 0.01 0.01 75 1015.5
20260503182344 63 77 0.9 5.2 0.00 0.00 0.00 73 1015.4
20260503181350 63 58 1.7 3.5 0.00 0.00 0.00 72 1015.4
20260503180355 63 58 2.6 5.2 0.00 0.00 0.00 71 1015.3
20260503175354 63 111 2.6 5.2 0.00 0.00 0.00 70 1015.3
20260503174338 63 63 2.6 7.8 0.00 0.00 0.00 70 1015.2
20260503173341 64 79 2.6 5.2 0.00 0.00 0.00 70 1015.0
20260503172358 64 62 2.6 6.1 0.00 0.00 0.00 69 1015.0
20260503171339 64 55 3.5 6.1 0.00 0.00 0.00 68 1015.0
20260503170342 64 84 0.9 6.1 0.00 0.00 0.00 67 1015.1
20260503150351 66 141 3.5 7.8 0.00 0.00 0.00 66 1015.2
20260503131356 66 203 1.7 8.7 0.00 0.00 0.00 65 1016.8
20260503130339 66 113 5.2 9.6 0.00 0.00 0.00 63 1017.0
20260503110339 66 158 2.6 6.1 0.00 0.00 0.00 64 1017.9
20260503090346 65 109 2.6 6.1 0.00 0.00 0.00 64 1018.1
20260503081353 65 195 0.9 5.2 0.00 0.00 0.00 67 1017.8
20260503080337 65 58 1.7 5.2 0.00 0.00 0.00 68 1017.8
20260503072355 64 164 0.9 3.5 0.00 0.00 0.00 72 1017.9
20260503071341 63 122 1.7 7.0 0.00 0.00 0.00 73 1018.1
20260503070345 63 49 0.9 5.2 0.00 0.00 0.00 75 1017.9
20260503060341 62 42 2.6 4.3 0.00 0.00 0.00 79 1017.9
20260503054342 62 44 1.7 2.6 0.00 0.00 0.00 79 1018.0
20260503053346 62 45 0.9 2.6 0.00 0.00 0.00 79 1018.1
20260503052345 62 44 0.9 3.5 0.00 0.00 0.00 80 1018.0
20260503051352 62 45 1.7 3.5 0.00 0.00 0.00 79 1018.0
20260503050356 62 44 1.7 2.6 0.00 0.00 0.00 79 1017.9
20260503045351 62 44 0.9 1.7 0.00 0.00 0.00 79 1017.9
20260503044358 62 44 0.9 2.6 0.00 0.00 0.00 79 1018.0
20260503043341 62 44 0.9 3.5 0.00 0.00 0.00 79 1017.9
20260503042339 62 44 0.9 2.6 0.00 0.00 0.00 79 1017.9
20260503041339 62 44 0.9 3.5 0.00 0.00 0.00 79 1018.0
20260503040343 62 43 2.6 4.3 0.00 0.00 0.00 79 1017.9
20260503035359 62 65 1.7 4.3 0.00 0.00 0.00 79 1018.1
20260503034357 62 87 2.6 4.3 0.00 0.00 0.00 80 1018.1
20260503033358 62 43 1.7 3.5 0.00 0.00 0.00 79 1018.0
20260503032353 62 41 0.9 2.6 0.00 0.00 0.00 79 1018.0
20260503031355 62 41 0.0 1.7 0.00 0.00 0.00 79 1018.3
20260503030342 62 41 0.0 0.9 0.00 0.00 0.00 79 1018.5
20260503025344 62 41 0.0 1.7 0.00 0.00 0.00 79 1018.6
20260503024341 62 41 0.0 2.6 0.00 0.00 0.00 78 1018.6
20260503023342 62 41 0.9 2.6 0.00 0.00 0.00 78 1018.6
20260503022341 62 41 0.9 2.6 0.00 0.00 0.00 78 1018.8
20260503021347 62 41 1.7 2.6 0.00 0.00 0.00 78 1018.7
20260503020338 62 42 0.9 4.3 0.00 0.00 0.00 78 1018.7
20260503015359 63 41 1.7 3.5 0.00 0.00 0.00 77 1018.7
20260503014358 63 41 0.9 2.6 0.00 0.00 0.00 77 1018.8
20260503013342 63 41 0.9 2.6 0.00 0.00 0.00 77 1018.7
20260503012344 63 40 0.9 2.6 0.00 0.00 0.00 76 1018.9
20260503011346 63 40 0.9 2.6 0.00 0.00 0.00 76 1019.1
20260503010352 63 40 0.0 1.7 0.00 0.00 0.00 76 1019.1
20260503005356 63 40 0.9 1.7 0.00 0.00 0.00 76 1019.3